Regional Weather Roundup
Issued by NWS

Home | Current Version | Previous Version | Text Only | Print | Product List | Glossary On
Versions: 1 2 3 4 5 6 7 8 9 10 11 12 13 14 15 16 17 18 19 20 21 22 23 24 25 26 27 28 29 30 31 32 33 34 35 36 37 38 39 40 41 42 43 44 45 46 47 48 49 50
000
ASUS44 KFWD 290515
RWRTX
NORTH TEXAS HOURLY WEATHER ROUNDUP
NATIONAL WEATHER SERVICE FORT WORTH TX
1200 AM CDT SAT AUG 29 2015

NOTE: "FAIR" INDICATES FEW OR NO CLOUDS BELOW 12,000 FEET WITH NO
SIGNIFICANT WEATHER AND/OR OBSTRUCTIONS TO VISIBILITY.

TXZ118-119-290600-
DALLAS/FORT WORTH METROPLEX

CITY           SKY/WX    TMP DP  RH WIND       PRES   REMARKS
DFW AIRPORT    CLOUDY    84  63  49 SE13      29.98S
DALLAS LOVE    CLOUDY    85  63  47 SE16      29.98S
FTW MEACHAM    CLOUDY    85  64  49 SE12      29.98S
DAL-EXECUTIVE  CLOUDY    82  63  52 SE9       29.99R
FTW-ALLIANCE   CLOUDY    84  63  49 SE9       29.98S
FTW-NAS-JRB    MOCLDY    85  63  47 SE10      29.94S
FTW-SPINKS     CLOUDY    80  64  57 SE6       30.00S
ARLINGTON      CLOUDY    84  63  49 E9        29.98S
GRAND PRAIRIE  CLOUDY    83  65  54 E7        30.00S
ADDISON        CLOUDY    84  65  52 SE14      30.00S
MESQUITE       MOCLDY    79  63  57 SE5       30.00R
LANCASTER      MOCLDY    80  62  54 CALM      30.00S
$$

TXZ091>094-102>105-117-120-121-131>134-290600-
NORTH CENTRAL TEXAS

CITY           SKY/WX    TMP DP  RH WIND       PRES   REMARKS
SHRMAN/DENISON CLOUDY    83  66  57 SE13      30.00S
GAINESVILLE    MOCLDY    82  65  57 SE8       30.00S
BOWIE          MOCLDY    78  64  63 SE5       29.99S
BRIDGEPORT     MOCLDY    84  64  50 SE8       30.00R
DECATUR        MOCLDY    83  60  45 SE9       30.00R
DENTON         CLOUDY    84  64  50 SE12      29.98S
MCKINNEY       CLOUDY    82  66  58 S7        29.99S
GREENVILLE     PTCLDY    75  63  64 SE3       30.01R
ROCKWALL       MOCLDY    80  64  58 SE7       29.99R
TERRELL        PTCLDY    77  65  66 E3        30.00R
WAXAHACHIE     MOCLDY    80  65  61 E5        30.01S
CLEBURNE         N/A     81  64  57 SE9       30.01S
GRANBURY       PTCLDY    83  63  50 SE7       29.99S
$$

TXZ083>090-098>101-113>116-127>130-139>142-154-155-290600-
WESTERN NORTH TEXAS

CITY           SKY/WX    TMP DP  RH WIND       PRES   REMARKS
WICHITA FALLS  MOCLDY    83  64  52 S12       29.95F
WF-KICKAPOO    MOCLDY    85  63  47 S15       29.96F
VERNON         MOCLDY    80  60  50 CALM      29.98S
ABILENE        MOCLDY    82  57  42 SE14      30.01R
ABILENE-DYESS  MOCLDY    84  56  37 SE15      29.99R
BRECKENRIDGE   MOCLDY    84  58  41 SE9       29.98S HAZE
GRAHAM         CLOUDY    84  61  44 SE5       29.97S
MINERAL WELLS  MOCLDY    80  63  55 SE8       29.97S
STEPHENVILLE   PTCLDY    79  60  52 CALM      30.03S
COMANCHE       MOCLDY    82  57  43 S9        30.01R
BROWNWOOD      CLOUDY    82  55  39 SE8       30.01R
COLEMAN        MOCLDY    82  57  43 SE9       30.01S
BRADY          CLEAR     82  55  39 S6        30.02R
$$

TXZ143>147-156>162-174-175-290600-
CENTRAL TEXAS

CITY           SKY/WX    TMP DP  RH WIND       PRES   REMARKS
WACO           CLEAR     80  62  54 SE6       29.98S
WACO-MCGREGOR  CLEAR     80  63  55 S8        29.99S
HILLSBORO      MOCLDY    80  60  50 E10       29.99S
CORSICANA      CLEAR     77  64  64 S3        30.01R
MEXIA          PTCLDY    78  65  63 SE13      29.99S
HEARNE         CLEAR     76  66  71 SE3       30.00S
CAMERON        CLEAR     79  65  63 S6        29.99S
TEMPLE         CLEAR     79  61  53 S9        30.00S
KILLEEN        CLEAR     77  62  59 S9        30.00S
KILLEEN-SKYLRK CLEAR     81  61  50 S8        30.00S
FORT HOOD      CLEAR     80  64  58 SE9       29.99S
GATESVILLE     CLEAR     79  63  57 CALM      30.02S
HAMILTON       PTCLDY    79  59  49 S10       30.02S
$$

TXZ095>097-106>112-122>126-135>138-148>153-164>167-290600-
EAST TEXAS

CITY           SKY/WX    TMP DP  RH WIND       PRES   REMARKS
PARIS          MOCLDY    75  57  53 SE8       30.01S
SULPHUR SPRNGS PTCLDY    78  63  60 S5        30.03R
MOUNT PLEASANT MOCLDY    73  63  70 CALM      30.02S
GILMER         MOCLDY    73  65  76 CALM      30.01S
MINEOLA        FAIR      72  68  88 CALM      30.01S
TYLER          MOCLDY    76  64  66 SE6       30.00S
LONGVIEW       PTCLDY    72  67  84 CALM      30.00S
MARSHALL       CLEAR     70  67  90 CALM      30.03F
ATHENS         PTCLDY    73  64  73 CALM      29.99S
PALESTINE      CLEAR     78  64  60 SE5       30.01S
JACKSONVILLE   PTCLDY    77  61  58 S6        30.04S
HENDERSON      PTCLDY    68  66  93 CALM      30.03R
CENTER         FAIR      70  67  89 NW3       30.01S
NACOGDOCHES    CLEAR     68  64  88 CALM      30.02R
LUFKIN         CLEAR     71  63  75 CALM      30.01R
$$

SUPPLEMENTAL OBSERVATIONS (CENTRAL)

CITY           SKY/WX    TMP DP  RH WIND       PRES   REMARKS
LAKE TEXOMA      N/A     82  64  54 SE6         N/A
CADDO GRASSLND   N/A    N/A N/A N/A S5          N/A
PAT MAYSE LAKE   N/A     79  59  50 SE10        N/A
GREENVILLE       N/A     75  63  64 SE3         N/A
CEDAR HILL       N/A     81  63  54 SE6         N/A
ATHENS           N/A     79  64  61 SE5         N/A
LAKE LIMESTONE   N/A     79  64  61 S2          N/A
MCGREGOR         N/A     79  61  53 S7          N/A
$$

SUPPLEMENTAL OBSERVATIONS (WEST)

CITY           SKY/WX    TMP DP  RH WIND       PRES   REMARKS
MILLERS CREEK    N/A     84  61  45 SE13        N/A
LBJ GRASSLAND    N/A     84  61  45 SE9         N/A
COMANCHE         N/A     81  54  39 S9          N/A
HAMBY            N/A     84  55  37 SE9G18      N/A
IVIE RESERVOIR   N/A     81  54  39 SE6         N/A
COLORADO BEND    N/A     81  59  47 SW7         N/A
$$

SUPPLEMENTAL OBSERVATIONS (EAST)

CITY           SKY/WX    TMP DP  RH WIND       PRES   REMARKS
CLARKSVILLE      N/A     75  59  57 SE5         N/A
TEXARKANA        N/A     64  63  94 CALM        N/A
LINDEN           N/A     70  64  83 CALM        N/A
CADDO LAKE       N/A    N/A N/A N/A CALM        N/A
GILMER           N/A     72  64  78 CALM        N/A
HENDERSON        N/A     70  64  83 S1          N/A
LUFKIN           N/A     70  64  83 MISG        N/A
N SABINE NF      N/A     66  61  82 MISG        N/A
S SABINE NF      N/A     68  63  83 SW1         N/A
$$

SUPPLEMENTAL OBSERVATIONS ARE A COLLECTION OF AUTOMATED INSTRUMENTS
THAT ARE MAINTAINED BY A VARIETY OF FEDERAL AND STATE AGENCIES.
CERTAIN ELEMENTS...SUCH AS HUMIDITY VALUES AND SUSTAINED WIND
SPEEDS...MAY BE APPROXIMATED.




USA.gov is the U.S. government's official web portal to all federal, state and local government web resources and services.